Location: Newark
(51.3318°N, 0.0053°E)
Time: 15:31:34
(UTC+00:00)

DIWATA 2B (PO-101) - Pass Details

Date: 02 July 2022
Orbit: 583 x 599 km, 98.0° (Epoch: 07 August)

Event Time Altitude Azimuth Distance (km) Brightness Sun altitude
Exits shadow 01:47:45 13° 169° (S) 1,768 ? -12.2°
Maximum altitude 01:51:33 79° 255° (WSW) 617 ? -12.0°
Drops below altitude 10° 01:55:48 10° 344° (NNW) 1,953 ? -11.7°
Sets 01:57:59 0° 345° (NNW) 2,859 ? -11.5°
